Flag for Germany Weather past 2 weeks in Rheda-Wiedenbrück, North Rhine-Westphalia, Germany

Now
53 °F

Overcast.


Feels Like: 53 °F
Forecast: 41 / 52 °F
Wind: 3 mph from Southwest

Location: Bad Lippspringe

Current Time: Oct 21, 2014 at 3:26:05 AM

Latest Report: Oct 21, 2014 at 3:00 AM


Visibility: 6 mi

Pressure: 29.90 "Hg

Humidity: 88%

Dew point: 50 °F

Location of Rheda-WiedenbrückLocation

Historic Weather in Rheda-Wiedenbrück — Graph

°F

Rheda-Wiedenbrück temperature yesterday

Maximum temperature yesterday: 61 °F (at 12:00 AM)
Minimum temperature yesterday: 55 °F (at 9:00 PM)
Average temperature yesterday: 57 °F

Past Weeks' High & Low Weather Summary

 TemperatureHumidityPressure
High74 °F (Oct 19, 3:00 PM)99% (Oct 11, 8:00 AM)30.16 "Hg (Oct 11, 8:00 AM)
Low47 °F (Oct 16, 1:00 AM)54% (Oct 14, 3:00 PM)29.57 "Hg (Oct 7, 2:00 PM)
Average57 °F83%29.85 "Hg
* Reported Oct 6 2:00 AM — Oct 21 2:00 AM, Rheda-Wiedenbrück, Weather by CustomWeather, © 2014

Note: Actual official high and low records may vary slightly from our data, if they occured in-between our weather recording intervals... More about our weather records

Advertising

Rheda-Wiedenbrück weather history for previous 24 hours

 ConditionsComfort  
Time TempWeatherWind HumidityBarometerVisibility
2:00 AM
Oct 21
54 °FOvercast.5 mph87%29.91 "Hg6 mi
1:00 AM54 °FOvercast.2 mph88%29.91 "Hg6 mi
12:00 AM54 °FOvercast.3 mph86%29.92 "Hg8 mi
11:00 PM
Oct 20
55 °FOvercast.3 mph84%29.93 "Hg10 mi
10:00 PM55 °FOvercast.2 mph83%29.95 "Hg12 mi
9:00 PM55 °FPassing clouds.2 mph83%29.96 "Hg11 mi
8:00 PM56 °FOvercast.3 mph79%29.95 "Hg14 mi
7:00 PM56 °FOvercast.3 mph77%29.96 "Hg14 mi
6:00 PM58 °FOvercast.5 mph72%29.95 "Hg14 mi
5:00 PM59 °FOvercast.7 mph71%29.96 "Hg12 mi
4:00 PM59 °FOvercast.6 mph77%29.98 "Hg11 mi
3:00 PM59 °FOvercast.9 mph74%29.98 "Hg11 mi
2:00 PM59 °FOvercast.7 mph78%29.99 "Hg10 mi
1:00 PM57 °FOvercast.7 mph82%30.01 "Hg10 mi
12:00 PM56 °FLight freezing rain. Overcast.8 mph87%30.01 "Hg4 mi
11:00 AM57 °FOvercast.8 mph78%30.00 "Hg9 mi
10:00 AM57 °FOvercast.6 mph81%30.00 "Hg11 mi
9:00 AM56 °FOvercast.6 mph83%30.00 "Hg11 mi
8:00 AM56 °FOvercast.6 mph85%29.98 "Hg9 mi
7:00 AM56 °FOvercast.5 mph86%29.98 "Hg13 mi
5:00 AM56 °FOvercast.5 mph84%29.98 "Hg19 mi
4:00 AM58 °FOvercast.6 mph81%29.99 "Hg18 mi
3:00 AM58 °FOvercast.6 mph82%30.00 "Hg19 mi
Weather by CustomWeather, © 2014

See weather overviewHow to use our weather pages